User: anonymous   Login
Location: Clyde
(45.1830°S, 169.3170°E)
Time: 14:20:51
(UTC+13:00)
Language:

BREEZE-M DEB (TANK) - Orbit

View from above orbital plane
View from above orbital plane
View from above satellite
View from above satellite

Ground track
Ground track

The orbit data is extracted from the following two-line orbital elements,

1 34712U 09016C   19288.83466381  .00000542  00000-0  10614-3 0  9996
2 34712  46.0980 317.4867 5057597 149.9564 252.5420  5.52764733207379
Epoch (UTC): 15 October 2019 20:01:54
Eccentricity: 0.5057597
inclination: 46.0980°
perigee height: 300 km
apogee height: 13967 km
right ascension of ascending node: 317.4867°
argument of perigee: 149.9564°
revolutions per day: 5.52764733
mean anomaly at epoch: 252.5420°
orbit number at epoch: 20737

The dashed part of the orbit path shows where the satellite is in the earth's shadow,  

DLR